Location: Bacharowice
(49.9333°N, 19.5833°E)
Time: 01:42:42
(UTC+00:00)

USA 305 - Pass Details

Date: 21 September 2021
Orbit: 547 x 588 km, 54.0° (Epoch: 03 October)

Event Time Altitude Azimuth Distance (km) Brightness Sun altitude
Rises 18:47:34 0° 285° (WNW) 2,746 7.8 -20.3°
Reaches altitude 10° 18:49:52 10° 290° (WNW) 1,857 6.7 -20.7°
Maximum altitude 18:53:59 50° 7° (N) 732 3.5 -21.3°
Enters shadow 18:54:57 41° 49° (NE) 837 3.5 -21.4°
